Location: ??
(35.5653°N, 139.6194°E)
Time: 03:12:59
(UTC+00:00)

COSMOS 2455 - Pass Details

Date: 20 November 2019
Orbit: 902 x 908 km, 67.1° (Epoch: 11 December)

Event Time Altitude Azimuth Distance (km) Brightness Sun altitude
Exits shadow 20:23:39 14° 305° (NW) 2,311 4.4 -12.0°
Maximum altitude 20:27:46 29° 253° (WSW) 1,603 3.7 -11.2°
Drops below altitude 10° 20:32:48 10° 196° (SSW) 2,575 5.3 -10.2°
Sets 20:35:36 0° 185° (S) 3,511 6.1 -9.7°
